This is the latest recevied weather packets stored in our database for station/object KE4BFX. If no packets are shown the sender has not sent any weather packets the latest 10 day(s).
| Time | Temp. | Humidity | Pressure | Rain* | Wind** | Luminosity | Snow |
|---|---|---|---|---|---|---|---|
| 1777983616 | 12.78° C | 90% | 1021.5 hPa | 0 mm | - | 121 W/m² | - |
| 1777980615 | 11.11° C | 89% | 1021.5 hPa | 0 mm | - | 21 W/m² | - |
| 1777980016 | 11.11° C | 89% | 1021.5 hPa | 0 mm | - | 14 W/m² | - |
| 1777974615 | 11.11° C | 88% | 1021.5 hPa | 0 mm | - | 0 W/m² | - |
| 1777972816 | 11.11° C | 88% | 1021.5 hPa | 0 mm | - | 0 W/m² | - |
| 1777968616 | 11.67° C | 88% | 1021.5 hPa | 0 mm | - | 0 W/m² | - |
| 1777968016 | 11.67° C | 87% | 1021.5 hPa | 0 mm | - | 0 W/m² | - |
| 1777966816 | 12.22° C | 87% | 1021.5 hPa | 0 mm | - | 0 W/m² | - |
| 1777962016 | 12.22° C | 86% | 1021.5 hPa | 0 mm | - | 0 W/m² | - |
| 1777960216 | 12.22° C | 85% | 1021.5 hPa | 0 mm | - | 0 W/m² | - |
| 1777954816 | 13.33° C | 82% | 1021.5 hPa | 0 mm | - | 0 W/m² | - |
| 1777953615 | 13.89° C | 82% | 1021.5 hPa | 0 mm | - | 0 W/m² | - |
| 1777951817 | 14.44° C | 81% | 1021.5 hPa | 0 mm | - | 0 W/m² | - |
| 1777950616 | 14.44° C | 79% | 1021.5 hPa | 0 mm | - | 0 W/m² | - |
| 1777948216 | 15.56° C | 76% | 1021.5 hPa | 0 mm | - | 0 W/m² | - |
| 1777945216 | 17.78° C | 72% | 1021.5 hPa | 0 mm | - | 0 W/m² | - |
| 1777944616 | 17.78° C | 70% | 1021.5 hPa | 0 mm | - | 0 W/m² | - |
| 1777940416 | 20.56° C | 63% | 1021.5 hPa | 0 mm | - | 9 W/m² | - |
| 1777929016 | 25.56° C | 46% | 1021.5 hPa | 0 mm | - | 642 W/m² | - |
| 1777924816 | 26.67° C | 43% | 1021.5 hPa | 0 mm | - | 823 W/m² | - |
| 1777920017 | 26.67° C | 39% | 1021.5 hPa | 0 mm | - | 926 W/m² | - |
| 1777917617 | 26.11° C | 42% | 1021.5 hPa | 0 mm | - | 940 W/m² | - |
| 1777916416 | 26.67° C | 40% | 1021.5 hPa | 0 mm | - | 944 W/m² | - |
| 1777913417 | 25.56° C | 44% | 1021.5 hPa | 0 mm | - | 911 W/m² | - |
| 1777912217 | 25° C | 48% | 1021.5 hPa | 0 mm | - | 884 W/m² | - |
* Rain latest hour (hover to see other rain measurements)
** Current wind speed in m/s (hover to see current wind gust speed)